Regional Weather Roundup
Issued by NWS

Home | Current Version | Previous Version | Text Only | Print | Product List | Glossary Off
Versions: 1 2 3 4 5 6 7 8 9 10 11 12 13 14 15 16 17 18 19 20 21 22 23 24 25 26 27 28 29 30 31 32 33 34 35 36 37 38 39 40 41 42 43 44 45 46 47 48 49 50

000
ASUS43 KOAX 300002
RWRNE

WEATHER ROUNDUP FOR NEBRASKA
NATIONAL WEATHER SERVICE OMAHA NE
700 PM CDT SAT APR 29 2017

NOTES: SATELLITE DATA IS BEING USED TO AUGMENT CLOUD COVER ABOVE
       12000 FEET.
       "FAIR" INDICATES FEW OR NO CLOUDS BELOW 12,000 FEET WITH NO
       SIGNIFICANT WEATHER AND/OR OBSTRUCTIONS TO VISIBILITY.

  * THESE STATIONS DO NOT REPORT WEATHER SUCH AS RAIN...SNOW OR FOG.

NEZ001>004-019>022-054>056-300100-
NEBRASKA PANHANDLE

CITY           SKY/WX    TMP DP  RH WIND       PRES   REMARKS
SCOTTSBLUFF    CLOUDY    45  26  47 N9        30.18F
6HR MIN TEMP:  42; 6HR MAX TEMP:  45;

ALLIANCE       MOSUNNY   48  22  35 NE17G23   30.14S
6HR MIN TEMP:  44; 6HR MAX TEMP:  48;

CHADRON        CLOUDY    50  22  33 NE12      30.16F
6HR MIN TEMP:  45; 6HR MAX TEMP:  51;

KIMBALL        CLOUDY    40  23  50 N18       30.16R WCI  31
SIDNEY         CLOUDY    44  19  36 N16G30    30.13R
6HR MIN TEMP:  38; 6HR MAX TEMP:  45;

$$

NEZ057>060-069>072-079>082-300100-
SOUTHWEST NEBRASKA

CITY           SKY/WX    TMP DP  RH WIND       PRES   REMARKS
NORTH PLATTE   CLOUDY    46  26  45 NE15      30.07S
6HR MIN TEMP:  45; 6HR MAX TEMP:  47;

IMPERIAL       CLOUDY    41  26  55 NE13      30.08F
6HR MIN TEMP:  40; 6HR MAX TEMP:  45;

LEXINGTON      DRIZZLE   43  32  64 NE16      30.03F
MCCOOK         CLOUDY    41  33  73 N17G25    30.05R
6HR MIN TEMP:  39; 6HR MAX TEMP:  42; 6HR PCP:  0.02;

$$

NEZ005>010-023>029-035>040-094-300100-
NORTH CENTRAL NEBRASKA

CITY           SKY/WX    TMP DP  RH WIND       PRES   REMARKS
VALENTINE      CLOUDY    52  15  23 NE15      30.13R
6HR MIN TEMP:  50; 6HR MAX TEMP:  57;

AINSWORTH      CLOUDY    49  24  37 NE17      30.11R
BROKEN BOW     CLOUDY    46  26  45 NE15      30.07R
6HR MIN TEMP:  44; 6HR MAX TEMP:  46; 6HR PCP: TRACE;

O`NEILL        CLOUDY    48  20  32 NE14      30.11R
ORD            CLOUDY    46  29  51 NE14G24   30.06R
6HR MIN TEMP:  45; 6HR MAX TEMP:  47; 6HR PCP: TRACE;

THEDFORD       CLOUDY    48  23  37 NE23      30.12R
$$

NEZ041-046>049-061>064-073>077-083>087-300100-
SOUTH CENTRAL NEBRASKA

CITY           SKY/WX    TMP DP  RH WIND       PRES   REMARKS
GRAND ISLAND   CLOUDY    42  36  79 NE23G32   30.00F
6HR MIN TEMP:  41; 6HR MAX TEMP:  45; 6HR PCP:  0.01;

AURORA         CLOUDY    42  37  82 N22G29    29.99F
HASTINGS       CLOUDY    42  35  76 N22G32    29.99F
6HR MIN TEMP:  41; 6HR MAX TEMP:  43; 6HR PCP:  0.02;

HEBRON         RAIN      41  40  97 NE23      29.94R
HOLDREGE       DRIZZLE   39  34  80 N29G38    30.00F WCI  28
KEARNEY *      CLOUDY    39  32  75 N25       30.02S WCI  28
YORK           CLOUDY    41  39  93 NE25G32   29.99F
$$

NEZ011>018-030>034-042>045-300100-
NORTHEAST NEBRASKA

CITY           SKY/WX    TMP DP  RH WIND       PRES   REMARKS
NORFOLK        CLOUDY    47  27  45 NE18      30.05S
6HR MIN TEMP:  46; 6HR MAX TEMP:  48; 6HR PCP: TRACE;

ALBION         CLOUDY    46  30  53 NE16G25   30.05F
BLAIR          CLOUDY    44  38  80 N23G29    29.98F
FREMONT        CLOUDY    44  38  80 N16G25    30.04R
TEKAMAH        LGT RAIN  44  36  73 NE23G30   30.04R
6HR MIN TEMP:  44; 6HR MAX TEMP:  48; 6HR PCP:  0.01;

WAYNE          CLOUDY    48  28  46 NE18G28   30.06S
$$

NEZ050>053-065>068-078-088>093-300100-
SOUTHEAST NEBRASKA

CITY           SKY/WX    TMP DP  RH WIND       PRES   REMARKS
LINCOLN        LGT RAIN  43  41  93 N20G30    29.98F FOG
6HR MIN TEMP:  43; 6HR MAX TEMP:  46; 6HR PCP:  0.02;

OMAHA EPPLEY   LGT RAIN  45  37  73 NE22G32   29.99S
6HR MIN TEMP:  45; 6HR MAX TEMP:  47; 6HR PCP: TRACE;

BEATRICE       CLOUDY    42  41  95 NE16G26   29.93R FOG
FALLS CITY     LGT RAIN  43  42  97 NE17G25   29.90R FOG
6HR MIN TEMP:  43; 6HR MAX TEMP:  46; 6HR PCP:  0.07;

NEBRASKA CITY  LGT RAIN  41  41 100 NE17G24   29.93F
$$

NEZ044-045-051>053-067-300100-
OMAHA AREA

CITY           SKY/WX    TMP DP  RH WIND       PRES   REMARKS
OMAHA EPPLEY   LGT RAIN  45  37  73 NE22G32   29.99S
6HR MIN TEMP:  45; 6HR MAX TEMP:  47; 6HR PCP: TRACE;

BLAIR          CLOUDY    44  38  80 N23G29    29.98F
FREMONT        CLOUDY    44  38  80 N16G25    30.04R
OFFUTT AFB     LGT RAIN  42  40  91 N15       29.96F FOG
WAHOO          CLOUDY    43  38  83 NE20G29   30.00F
$$




USA.gov is the U.S. government's official web portal to all federal, state and local government web resources and services.